{"data":{"norad_id":61543,"intl_designator":"2024-184M","name":"STARLINK-11364 [DTC]","alt_names":[],"object_type":"PAYLOAD","status":"ACTIVE","operator":null,"country":"US","launch_date":"2024-10-15","launch_site_code":"AFWTR","launch_vehicle":null,"mission":null,"orbit_class":"UNKNOWN","rcs_meters":null,"size_class":null,"mass_kg":null,"dimensions":null,"purposes":["comms"],"wikipedia_slug":null,"has_3d_model":false,"image_url":null,"decayed_at":null,"tle_current":{"epoch":"2026-05-25T05:08:15.807840Z","epoch_age_seconds":60145,"freshness":"FRESH","line1":"1 61543U 24184M   26145.21407185  .00000117  00000+0  58232-5 0  9997","line2":"2 61543  53.1593 219.2204 0000718  73.4127 286.6969 15.69706487 92434","mean_motion":15.69706487,"eccentricity":7.18e-5,"inclination_deg":53.1593,"raan_deg":219.2204,"arg_perigee_deg":73.4127,"mean_anomaly_deg":286.6969,"bstar":5.8232e-6,"rev_number":9243,"period_min":91.736895523195,"perigee_km":359.25302396075,"apogee_km":360.2205826389,"semimajor_km":6737.8738032998,"source":"CELESTRAK","updated_at":"2026-05-25T13:38:19.399318Z"}}}